Location: Berlin
(52.5170°N, 13.3889°E)
Time: 22:02:30
(UTC+02:00)

LES 1 - Pass Details

Date: 19 June 2025
Orbit: 2779 x 2808 km, 32.1° (Epoch: 12 July)

Event Time Altitude Azimuth Distance (km) Brightness Sun altitude
Rises 01:37:06 0° 249° (WSW) 6,571 12.0 -13.8°
Reaches altitude 10° 01:41:47 10° 241° (WSW) 5,553 11.5 -13.7°
Maximum altitude 01:55:15 35° 183° (S) 3,875 10.5 -13.4°
Drops below altitude 10° 02:08:46 10° 124° (SE) 5,568 11.7 -12.9°
Sets 02:13:28 0° 116° (ESE) 6,591 12.2 -12.7°
